Skip Page Navigation
NASA JPL Caltech
NASA Logo - Jet Propulsion Laboratory + View the NASA Portal
+ Center for Near-Earth Object Studies
JPL Home Earth Solar System Stars & Galaxies Technology
JPL Solar System Dynamics
BODIES ORBITS EPHEMERIDES TOOLS PHYSICAL DATA DISCOVERY FAQ SITE MAP
IMPORTANT: The SSD Announcement email list is now available. Major changes are coming in the near future, including possible hostname and/or URL changes. To be notified of such changes, subscribe to this email list.

Please visit this page for more details.


JPL Small-Body Database Browser
Search: [ help ]  
437708 (2014 DV81)
Classification: Main-belt Asteroid          SPK-ID: 2437708
Ephemeris | Orbit Diagram | Orbital Elements | Mission Design | Physical Parameters | Discovery Circumstances ]

[ show orbit diagram ]
Orbital Elements at Epoch 2458600.5 (2019-Apr-27.0) TDB
Reference: JPL 11 (heliocentric ecliptic J2000)
 Element Value Uncertainty (1-sigma)   Units 
e .05252243738996859 8.2176e-08  
a 2.80554728288104 4.5285e-08 au
q 2.658193101371324 2.227e-07 au
i 3.754399655597073 1.1536e-05 deg
node 13.24594389269229 0.00013765 deg
peri 248.4729671602231 0.00018181 deg
M 285.1402829723827 0.00011467 deg
tp 2458957.419680757911
(2020-Apr-17.91968076)
0.00054553 TDB
period 1716.424936864842
4.70
4.1558e-05
1.138e-07
d
yr
n .2097382718393516 5.0781e-09 deg/d
Q 2.952901464390756 4.7663e-08 au
  Orbit Determination Parameters
   # obs. used (total)      107  
   data-arc span      5126 days (14.03 yr)  
   first obs. used      2005-03-16  
   last obs. used      2019-03-29  
   planetary ephem.      DE431  
   SB-pert. ephem.      SB431-N16  
   condition code      0  
   norm. resid. RMS      .72554  
   source      ORB  
   producer      Otto Matic  
   solution date      2019-Jul-14 15:57:26  

Additional Information
 Earth MOID = 1.64538 au 
 Jupiter MOID = 2.07631 au 
 T_jup = 3.318 
[ show covariance matrix ]

Ephemeris | Orbit Diagram | Orbital Elements | Mission Design | Physical Parameters | Discovery Circumstances ]

Physical Parameter Table
Parameter Symbol Value Units Sigma Reference Notes
absolute magnitude H 17.1   n/a MPO434612  

437708 (2014 DV81)          Discovered 2005-Mar-16 by Spacewatch at Kitt Peak
Reference: Last Updated: 2015-06-04

Alternate Designations
 2014 DV81 = 2005 GV14 = 2008 YJ67 
Ephemeris | Orbit Diagram | Orbital Elements | Mission Design | Physical Parameters | Discovery Circumstances ]
ABOUT SSD CREDITS/AWARDS PRIVACY/COPYRIGHT GLOSSARY LINKS
FirstGov 2019-Dec-05 15:54 UT
(server date/time)  
NASA Home Page
Site Manager:   Ryan S. Park
Webmaster  Alan B. Chamberlin